Location: Newark
(15.4608°S, 41.1635°W)
Time: 04:35:53
(UTC+00:00)

Envisat - Pass Details

Date: 27 June 2021
Orbit: 764 x 766 km, 98.2° (Epoch: 27 July)

Event Time Altitude Azimuth Distance (km) Brightness Sun altitude
Rises 08:21:53 0° 346° (NNW) 3,210 6.3 -11.8°
Reaches altitude 10° 08:24:35 10° 332° (NNW) 2,291 5.4 -11.2°
Maximum altitude 08:28:34 24° 279° (W) 1,557 4.1 -10.3°
Drops below altitude 10° 08:32:36 10° 226° (SW) 2,308 4.9 -9.4°
Enters shadow 08:32:51 - 225° (SW) 2,387 5.0 -9.4°
